SCP
0 0 0 0 0 0 0 0 0 0 0 0 0 0 0 0 0 0 0 0 0 0 1 2 3 3 3 3 3 3 3 3 2 2 1 1 1 1 1 1 1 1 1 1 1 1 1 1 1
0 0 0 0 0 0 0 0 0 0 0 0 0 0 0 0 0 0 0 0 0 1 1 2 3 3 4 4 3 3 3 3 2 2 1 1 1 1 1 1 1 1 1 1 1 1 1 0 0
1 1 0 0 0 0 0 0 0 0 0 0 0 0 0 0 0 0 0 0 0 1 1 2 3 3 4 4 4 4 3 3 3 2 1 1 1 1 1 1 1 1 1 0 0 0 0 0 0
1 1 1 0 0 0 0 0 0 0 0 0 0 0 0 0 0 0 0 0 0 1 1 2 3 3 3 4 4 4 4 3 3 2 1 1 1 0 0 1 1 0 0 0 0 0 0 0 0
1 1 1 0 0 0 0 0 0 0 0 0 0 0 0 0 0 0 0 0 0 1 1 2 3 3 3 3 4 4 3 3 3 2 1 1 0 0 0 0 0 0 0 0 0 0 0 0 0
1 1 1 0 0 0 0 0 0 0 0 0 0 0 0 0 0 0 0 0 0 1 1 2 2 2 2 3 4 4 3 3 3 2 1 1 0 0 0 0 0 0 0 0 0 0 0 0 0
1 1 1 0 0 0 0 0 0 0 0 0 0 0 0 0 0 0 0 0 1 1 1 1 2 2 2 3 4 4 4 3 2 2 1 1 0 0 0 0 0 0 0 0 0 0 0 0 0
1 1 1 0 0 0 0 0 0 0 0 0 0 0 0 0 0 0 0 0 1 1 1 1 1 1 2 2 3 4 3 3 2 1 1 0 0 0 0 0 0 0 0 0 0 0 0 0 0
1 1 0 0 0 0 0 0 0 0 0 0 0 0 0 0 0 0 0 1 1 1 1 1 1 1 2 2 3 3 3 2 2 1 1 0 0 0 0 0 0 0 0 0 0 0 0 0 0
0 0 0 0 0 0 0 0 0 0 0 0 0 0 0 0 0 0 0 0 1 1 1 1 1 1 2 2 3 3 3 2 2 1 0 0 0 0 0 0 0 0 0 0 0 0 0 0 0
0 0 0 0 0 0 0 0 0 0 0 0 0 0 0 0 0 0 0 0 0 1 1 1 1 1 2 3 3 3 3 2 2 1 0 0 0 0 0 0 0 0 0 0 0 0 0 0 0
0 0 0 0 0 0 0 0 0 0 0 0 0 0 0 0 0 0 0 0 0 1 1 1 1 1 2 2 3 3 3 3 2 1 0 0 0 0 0 0 0 0 0 0 0 0 0 0 0
0 0 0 0 0 0 0 0 0 0 0 0 0 0 0 0 0 0 0 0 0 0 1 1 1 1 1 2 3 3 3 3 2 1 0 0 0 0 0 0 0 0 0 0 0 0 0 0 0
0 0 0 0 0 0 0 0 0 0 0 0 0 0 0 0 0 0 0 0 0 0 0 1 1 1 1 2 2 3 3 3 2 1 0 0 0 0 0 0 0 0 0 0 0 0 0 0 0
0 0 0 0 0 0 0 0 0 0 0 0 0 0 0 0 0 0 0 0 0 0 0 0 1 1 1 2 2 2 3 3 2 1 0 0 0 0 0 0 0 0 0 0 0 0 0 0 0
0 0 0 0 0 0 0 0 0 0 0 0 0 0 0 0 0 0 0 0 0 0 0 0 1 1 1 2 2 2 3 3 2 1 0 0 0 0 0 0 0 0 0 0 0 0 0 0 0
0 0 0 0 0 0 0 0 0 0 0 0 0 0 0 0 0 0 0 0 0 0 0 0 1 1 1 2 2 2 2 2 2 1 0 0 0 0 0 0 0 0 0 0 0 0 0 0 0
0 0 0 0 0 0 0 0 0 0 0 0 0 0 0 0 0 0 0 0 0 0 0 0 1 1 1 1 1 2 2 2 1 1 0 0 0 0 0 0 0 0 0 0 0 0 0 0 0
0 0 0 0 0 0 0 0 0 0 0 0 0 0 0 0 0 0 0 0 0 0 0 0 0 1 1 1 1 1 2 2 1 1 0 0 0 0 1 1 1 1 1 1 0 0 0 0 0
0 0 0 0 0 0 0 0 0 0 0 0 0 0 0 0 0 0 0 0 0 0 0 0 0 1 1 1 1 1 2 2 1 1 1 1 1 1 1 1 1 1 1 1 0 0 0 0 0
0 0 0 0 0 0 0 0 0 0 0 0 0 0 0 0 0 0 0 0 0 0 0 0 0 1 1 1 1 1 1 1 1 1 1 1 1 1 1 1 1 1 1 1 1 0 0 0 0
0 0 0 0 0 0 0 0 0 0 0 0 0 0 0 0 0 0 0 0 0 0 1 1 1 1 1 1 1 1 1 1 1 1 1 1 1 1 1 1 1 2 2 1 1 1 0 0 0
0 0 0 0 0 0 0 0 0 0 0 0 0 0 0 0 0 0 0 0 0 0 1 1 1 1 1 1 1 1 1 1 1 1 1 1 1 1 1 1 2 2 2 1 1 1 1 0 0
0 0 0 0 0 0 0 0 0 0 0 0 0 0 0 0 0 0 0 0 0 0 1 1 1 1 1 1 1 1 1 1 1 1 1 1 1 1 1 1 2 2 2 2 1 1 1 1 0
0 0 0 0 0 0 0 0 0 0 0 0 0 0 0 0 0 0 0 0 0 0 1 1 1 1 1 1 1 1 1 1 1 1 1 1 1 1 1 1 1 2 2 1 1 1 1 1 0
0 0 0 0 0 0 0 0 0 0 0 0 0 0 0 0 0 0 0 0 0 0 0 1 1 1 1 1 1 1 1 1 1 1 1 1 1 1 1 1 1 1 1 1 1 1 1 1 1
0 0 0 0 0 0 0 0 0 0 0 0 0 0 0 0 0 0 0 0 0 0 0 0 0 1 1 1 1 1 1 1 1 1 1 1 1 1 1 1 1 1 1 1 1 1 1 1 1
0 0 0 0 0 0 0 0 0 0 0 0 0 0 0 0 0 0 0 0 0 0 0 0 0 0 0 1 1 1 1 1 1 1 1 1 1 1 1 1 1 1 1 1 1 1 1 1 1
0 0 0 0 0 0 0 0 0 0 0 0 0 0 0 0 0 0 0 0 0 0 0 0 0 0 0 0 1 1 1 1 1 1 1 1 1 1 1 1 1 1 1 1 1 1 1 1 1
0 0 0 0 0 0 0 0 0 0 0 0 0 0 0 0 0 0 0 0 0 0 0 0 0 0 0 0 1 1 1 1 0 0 0 0 0 0 0 1 1 1 1 1 1 1 1 1 1
Wind_Speed
6 7 5 4 6 7 10 7 6 5 4 3 3 5 5 6 4 2 4 8 10 14 16 18 17 17 17 16 15 14 14 13 12 12 11 11 11 11 11 11 11 11 11 11 11 11 12 12 12
6 6 5 5 8 10 9 9 9 7 2 2 4 6 6 6 3 1 5 9 11 14 15 16 17 17 17 17 16 15 14 13 12 12 11 11 11 11 11 11 11 11 11 11 11 11 11 11 11
7 6 6 6 9 11 7 5 7 6 4 5 4 5 5 3 2 3 5 11 12 14 14 15 17 18 17 17 16 15 15 14 13 13 12 11 11 11 11 11 11 10 10 10 10 10 10 10 10
5 5 6 9 14 12 9 3 2 4 5 6 6 5 4 1 0 3 8 12 13 14 14 15 17 18 17 17 16 15 15 14 13 13 12 12 11 11 11 11 10 10 10 10 9 9 9 9 9
5 6 9 12 15 12 10 7 5 7 6 6 7 6 4 3 2 5 9 12 13 14 13 16 17 18 17 17 16 16 15 14 13 12 12 12 11 11 11 10 10 10 9 9 9 8 9 8 8
6 6 10 14 14 11 10 8 8 10 8 6 6 7 3 4 5 7 10 12 12 13 13 14 17 16 17 17 17 16 15 14 14 13 13 12 12 11 11 10 10 9 9 8 8 8 8 8 8
7 8 13 14 13 12 9 8 10 11 11 8 6 6 4 6 5 7 10 11 12 12 12 13 15 15 16 16 16 16 15 14 14 13 13 12 12 11 11 10 9 9 9 8 8 7 7 7 7
5 6 12 13 13 12 7 7 8 11 10 4 6 8 4 5 7 8 9 10 11 12 13 13 14 14 15 15 15 15 14 13 13 12 11 10 10 11 10 10 9 9 9 8 8 7 6 6 6
6 9 13 13 11 9 6 8 7 7 8 7 8 7 3 6 9 10 10 10 12 12 13 13 14 13 13 14 14 14 13 12 12 11 11 10 10 10 9 9 9 9 8 8 8 7 6 6 6
8 12 16 10 10 9 7 8 7 8 11 10 9 7 4 8 11 13 14 15 16 16 16 14 14 14 13 11 12 11 11 12 12 11 13 10 9 7 7 9 7 8 7 8 7 7 6 6 5
9 13 13 12 10 10 10 9 8 10 12 12 11 9 8 10 12 14 15 16 17 16 16 15 15 14 13 10 10 8 8 9 11 12 12 9 8 6 7 6 7 7 8 7 7 7 5 5 3
10 13 12 12 9 10 12 11 11 14 13 9 9 7 9 12 14 15 16 16 15 16 17 16 16 14 14 12 10 10 8 8 8 11 13 10 7 7 7 6 7 7 5 6 6 5 6 5 5
14 13 13 13 12 13 14 16 15 17 15 12 10 9 11 13 15 15 15 14 15 16 17 18 17 16 15 13 11 10 10 10 10 10 11 12 9 9 8 7 6 7 6 6 6 6 6 6 5
9 11 12 12 13 11 14 17 16 17 13 13 13 14 14 15 15 14 14 15 16 17 18 17 18 18 16 14 12 11 11 10 10 10 12 13 10 9 8 8 8 7 7 6 6 7 6 5 5
7 10 13 12 11 10 11 18 19 17 15 16 16 15 15 15 15 16 16 16 17 17 17 18 18 18 18 17 15 11 11 11 11 10 13 14 12 11 10 9 8 8 8 8 7 7 6 5 5
7 9 11 9 9 9 11 18 15 13 14 17 17 16 15 14 15 15 16 15 16 16 17 18 15 18 19 17 15 12 12 12 11 11 11 15 15 13 11 9 9 9 8 7 7 7 7 6 6
8 11 13 11 9 9 12 17 15 12 14 17 17 16 15 15 15 15 15 15 15 16 16 17 18 19 19 18 14 13 12 12 11 11 11 13 16 15 12 10 9 10 8 8 8 7 7 7 7
10 12 13 13 8 10 15 19 17 14 14 16 15 15 15 15 15 14 14 14 14 14 15 16 17 19 18 14 12 11 12 12 11 12 13 15 14 16 14 10 12 11 9 9 9 10 8 7 6
11 13 16 14 10 11 17 21 20 17 15 16 15 14 14 15 15 13 13 13 13 13 14 16 17 17 15 13 13 12 13 13 12 12 15 17 16 17 15 11 12 12 11 11 12 10 10 8 6
13 15 16 13 9 10 16 22 20 18 17 16 16 15 15 15 14 12 11 11 13 14 15 16 17 17 17 14 14 13 13 12 12 11 14 17 17 17 14 15 12 13 11 13 13 11 8 7 7
14 15 14 13 12 12 15 19 17 16 15 15 15 15 14 14 14 12 11 11 12 13 14 14 17 18 18 17 13 10 10 9 11 13 13 16 18 18 17 17 15 14 13 12 14 13 13 10 9
13 11 12 13 12 9 8 13 14 12 13 13 13 12 13 13 12 12 11 11 11 12 12 14 16 17 17 17 16 17 14 15 17 14 13 16 18 19 18 18 17 15 13 14 14 14 12 12 9
9 8 11 13 13 13 12 13 13 9 12 12 11 11 11 11 11 11 11 11 11 10 10 12 14 16 17 18 18 18 18 16 13 14 16 16 16 18 19 18 17 16 14 15 15 15 15 12 11
6 6 9 9 9 13 13 14 14 9 11 11 10 9 9 9 10 10 10 9 9 8 8 10 12 14 16 18 19 20 21 19 17 17 15 14 13 14 19 19 17 17 15 16 16 15 17 14 14
6 5 5 6 8 10 6 11 13 8 8 10 10 9 8 8 8 8 8 8 7 7 8 9 11 13 14 17 18 19 21 21 20 18 16 15 13 13 17 18 18 17 17 16 16 15 15 16 16
8 8 7 7 8 8 7 12 9 6 6 7 7 8 7 7 7 7 7 7 7 7 8 8 11 12 13 15 16 17 19 16 15 18 15 15 13 14 16 18 18 18 18 16 16 14 15 14 15
7 9 8 9 10 11 10 11 11 7 6 5 6 6 7 7 8 8 7 6 6 7 7 8 10 11 12 13 15 15 17 17 17 17 16 14 14 12 16 17 17 18 17 17 16 13 15 14 14
9 5 5 7 7 11 12 14 10 7 6 6 6 6 7 8 8 8 7 6 6 6 6 7 8 10 11 11 12 11 14 16 16 15 16 16 15 14 15 16 17 17 17 17 16 14 14 15 14
8 8 8 7 8 9 11 9 3 5 6 7 7 7 8 9 9 9 8 7 6 5 5 5 6 7 8 9 10 12 12 13 14 14 16 15 14 15 15 16 16 16 17 16 16 15 15 16 15
10 11 11 10 11 11 12 11 2 4 5 6 8 8 9 9 9 9 8 7 6 6 6 5 5 5 7 7 9 10 11 11 13 14 15 15 15 15 15 15 15 16 16 16 16 16 15 16 16
Wind_Direction
178 178 189 208 222 228 235 223 223 206 211 213 206 215 235 235 246 342 75 155 153 157 162 166 169 167 165 162 159 155 151 149 146 142 139 134 129 128 125 121 118 113 110 106 104 102 101 99 96
180 182 202 221 234 227 226 222 222 223 198 164 203 223 234 237 266 45 138 158 161 160 164 168 167 169 166 164 163 159 156 154 152 148 144 140 135 133 128 124 121 117 113 107 104 104 102 100 97
178 208 222 221 231 233 231 215 230 225 211 213 211 227 249 240 186 159 137 158 164 164 168 163 167 169 167 166 166 164 161 160 158 154 150 145 142 139 133 129 126 121 116 112 109 107 106 104 102
189 204 226 234 232 232 244 236 216 213 206 221 233 222 210 236 127 121 141 163 166 167 170 162 171 171 169 168 168 167 165 163 161 159 156 153 150 145 139 134 130 127 123 119 116 114 112 109 106
216 223 224 231 237 236 241 257 246 233 216 207 225 242 219 152 137 140 158 168 170 169 171 165 172 173 172 172 172 170 170 168 165 163 163 161 157 151 145 141 139 135 130 127 124 122 118 114 111
208 224 230 232 234 236 239 239 242 243 237 220 227 243 223 140 166 161 165 173 173 171 173 168 174 176 177 177 174 173 173 172 170 169 168 166 162 157 154 150 147 145 140 135 132 130 127 124 117
225 225 238 242 244 239 237 229 238 242 241 231 225 238 207 169 162 163 170 176 176 175 177 176 176 179 180 179 177 177 176 176 176 175 173 167 164 163 160 156 155 153 149 145 142 139 138 132 125
235 238 239 239 243 244 238 233 244 246 253 249 230 239 227 149 147 163 170 178 181 183 186 184 183 183 183 181 179 179 178 179 178 175 171 163 163 166 162 165 162 162 158 156 152 147 147 138 130
222 235 236 232 240 248 240 241 240 246 249 237 236 264 329 130 153 164 173 185 189 192 193 191 190 187 187 185 178 180 178 180 177 174 164 167 177 174 171 167 161 168 166 165 162 158 151 147 140
213 234 239 242 246 259 256 253 251 235 237 236 232 230 197 172 179 184 188 191 195 196 197 194 194 191 189 185 182 187 185 182 188 184 178 185 184 179 174 146 163 174 173 171 165 158 163 188 167
219 237 246 247 252 263 261 259 252 247 247 245 244 230 196 198 202 204 204 202 201 199 197 198 195 194 190 188 187 188 188 187 192 190 185 186 183 176 180 172 171 180 182 183 169 181 189 194 181
233 241 247 252 249 258 262 261 256 248 255 272 275 257 213 210 212 214 214 211 205 202 201 201 197 197 195 194 191 190 190 189 190 189 189 187 186 189 185 188 185 186 189 189 192 200 191 197 198
237 245 247 253 253 258 263 258 261 259 261 269 271 249 234 229 227 225 224 220 212 208 204 203 200 199 197 198 197 195 195 193 191 191 193 193 192 193 190 192 189 195 192 193 200 202 197 203 205
248 255 256 256 254 251 258 262 256 257 261 262 259 255 247 241 237 233 226 223 216 212 208 203 203 202 199 199 202 199 198 196 196 193 197 197 198 197 194 196 195 199 199 201 204 206 206 210 211
258 261 258 245 244 246 258 260 246 253 259 261 259 257 254 249 243 236 230 225 221 216 210 205 204 204 203 203 206 203 200 198 199 197 199 200 202 200 198 201 199 201 201 202 208 208 214 216 216
241 247 252 242 240 238 242 261 257 254 255 259 260 259 254 250 246 240 235 230 225 220 213 208 203 206 206 205 206 206 203 200 201 200 201 202 203 202 202 204 205 202 200 203 206 209 211 213 218
229 246 255 260 237 241 240 264 270 262 258 260 261 260 258 255 250 244 238 233 227 222 216 210 206 207 207 206 206 209 205 204 203 201 202 203 204 203 204 207 206 202 203 206 207 211 214 216 219
245 253 257 259 259 254 256 263 270 267 264 265 265 262 259 257 255 250 242 235 229 223 218 212 209 209 207 205 206 210 210 208 207 205 205 204 204 204 206 208 209 204 205 208 209 211 214 222 221
259 262 266 269 274 269 266 270 271 268 264 264 264 264 262 261 260 254 245 236 228 222 218 213 209 208 204 200 201 205 208 206 207 208 208 207 206 204 206 207 208 206 209 210 212 212 214 217 214
253 260 268 276 268 266 272 273 271 263 259 261 263 261 262 265 264 257 245 235 227 222 217 214 211 207 205 205 203 206 208 207 208 207 210 209 209 207 206 209 208 206 211 213 213 210 212 212 204
250 254 264 277 289 267 277 274 260 254 251 251 253 255 259 263 264 261 250 239 229 225 221 216 213 210 207 206 205 205 209 207 207 209 209 210 210 209 207 209 210 208 210 213 212 208 211 211 205
257 256 263 272 277 271 270 282 272 260 252 249 251 253 257 260 259 259 256 246 236 231 224 221 218 214 210 206 205 204 205 206 208 207 208 209 209 210 210 210 211 211 211 213 213 210 211 214 210
256 267 263 264 266 270 254 262 271 256 252 253 255 257 259 260 259 258 257 252 244 237 228 222 220 217 212 208 208 210 214 214 213 208 210 210 209 211 211 211 211 212 212 214 213 210 211 212 215
255 268 265 254 253 256 248 247 270 253 255 268 270 269 267 267 263 261 260 257 251 242 231 225 222 220 215 211 212 214 216 215 214 211 209 209 208 209 212 211 211 212 212 213 213 212 212 213 216
227 250 258 243 230 249 240 243 257 270 264 269 278 286 287 280 274 271 269 262 256 247 236 228 225 223 218 216 216 218 219 217 217 215 213 210 209 208 210 208 211 212 213 213 212 213 213 214 216
226 229 242 263 264 272 241 242 258 283 281 274 275 282 290 293 292 287 286 278 267 256 243 234 230 228 223 220 221 222 221 219 221 220 217 214 213 212 209 208 212 213 212 211 211 212 213 214 216
232 229 246 269 274 273 256 258 270 267 264 268 278 292 295 300 304 300 296 290 286 275 257 243 237 234 229 226 224 224 223 220 221 221 220 219 218 214 211 208 211 213 213 211 209 212 212 213 215
244 249 231 235 258 259 260 256 259 266 265 275 290 305 313 322 325 328 318 312 309 303 287 261 246 242 237 231 228 227 227 225 223 221 220 219 218 214 212 210 210 211 212 211 210 212 213 213 214
222 226 236 246 251 264 271 264 265 261 273 289 298 310 319 327 329 329 328 328 329 326 316 298 271 255 246 238 234 233 232 229 226 223 222 220 219 215 214 211 209 210 210 209 210 211 210 212 213
247 239 234 244 250 252 267 270 284 270 287 300 311 320 320 324 326 325 325 327 330 325 316 308 297 277 259 247 240 237 236 232 229 227 224 220 219 217 215 213 211 211 211 209 209 210 210 211 213